Newburgh, NY
on Saturday, December 9, 2017

Saturday
       
Previous Day Next Day
Daily Summary
 ActualAverageRecord
Temperature
Mean Temperature °F °C °F °C  
Max Temperature 32°F 0°C 40°F 4°C 60°F 15°C (1980)
Min Temperature 26°F -3°C 24°F -4°C 3°F -16°C (2002)
Degree Days
Heating Degree Days 36    
Moisture
Dew Point 24°F -4°C   
Average Humidity 84    
Maximum Humidity 100    
Minimum Humidity 55    
Precipitation
Precipitation 0.00 in / 0.00 cm in / cm in / cm ()
Wind
Wind Speed 4 mph / 6 km/h   
Max Wind Speed 10 mph / 16 km/h   
Max Gust Speed mph / km/h   
Visibility 6 miles / 9 kilometers   
Events Snow   
Averages and records for this station are not official NWS values.
Key: T is trace of precipitation, MM is missing value
Source: NWS Daily Summary
Seasonal Weather Averages
Time(EST)TemperatureDew PointHumidity Pressure Visibility Wind DirectionWind SpeedGust SpeedPrecipitationEvents Conditions
12:45 AM 30.2°F -1.0°C 19.4°F -7.0°C 64% 29.94 in / 1013.8 hPa 10.0 miles / 16.1 kilometers WSW 5.8 mph / 9.3 km/h - N/A   Mostly Cloudy
1:45 AM 30.2°F -1.0°C 19.4°F -7.0°C 64% 29.94 in / 1013.8 hPa 10.0 miles / 16.1 kilometers SW 5.8 mph / 9.3 km/h - N/A   Overcast
2:45 AM 30.2°F -1.0°C 21.2°F -6.0°C 69% 29.95 in / 1014.1 hPa 10.0 miles / 16.1 kilometers West 5.8 mph / 9.3 km/h - N/A   Overcast
3:45 AM 30.2°F -1.0°C 19.4°F -7.0°C 64% 29.96 in / 1014.4 hPa 10.0 miles / 16.1 kilometers WSW 5.8 mph / 9.3 km/h - N/A   Overcast
4:45 AM 30.2°F -1.0°C 21.2°F -6.0°C 69% 29.94 in / 1013.8 hPa 10.0 miles / 16.1 kilometers Calm Calm - N/A   Overcast
5:45 AM 30.2°F -1.0°C 21.2°F -6.0°C 69% 29.94 in / 1013.8 hPa 10.0 miles / 16.1 kilometers Calm Calm - N/A   Overcast
6:45 AM 30.2°F -1.0°C 21.2°F -6.0°C 69% 29.96 in / 1014.4 hPa 15.0 miles / 24.1 kilometers Calm Calm - N/A   Overcast
7:45 AM 30.2°F -1.0°C 23.0°F -5.0°C 75% 29.96 in / 1014.4 hPa 15.0 miles / 24.1 kilometers Calm Calm - N/A   Overcast
8:45 AM 32.0°F 0.0°C 17.6°F -8.0°C 55% 29.92 in / 1013.1 hPa 15.0 miles / 24.1 kilometers Calm Calm - N/A   Mostly Cloudy
9:45 AM 32.0°F 0.0°C 17.6°F -8.0°C 55% 29.92 in / 1013.1 hPa 10.0 miles / 16.1 kilometers East 10.4 mph / 16.7 km/h - N/A   Mostly Cloudy
10:45 AM 32.0°F 0.0°C 17.6°F -8.0°C 55% 29.92 in / 1013.1 hPa 3.0 miles / 4.8 kilometers ENE 5.8 mph / 9.3 km/h - N/A Snow Light Snow
11:45 AM 30.2°F -1.0°C 26.6°F -3.0°C 86% 29.88 in / 1011.7 hPa 1.5 miles / 2.4 kilometers ENE 5.8 mph / 9.3 km/h - N/A Snow Light Snow
12:45 PM 28.4°F -2.0°C 28.4°F -2.0°C 100% 29.84 in / 1010.4 hPa 0.8 miles / 1.2 kilometers NE 5.8 mph / 9.3 km/h - N/A Snow Light Snow
1:45 PM 28.4°F -2.0°C 28.4°F -2.0°C 100% 29.80 in / 1009.0 hPa 0.5 miles / 0.8 kilometers Calm Calm - N/A Snow Light Snow
2:45 PM 28.4°F -2.0°C 28.4°F -2.0°C 100% 29.79 in / 1008.7 hPa 0.5 miles / 0.8 kilometers Calm Calm - N/A Snow Light Snow
3:45 PM 28.4°F -2.0°C 28.4°F -2.0°C 100% 29.79 in / 1008.7 hPa 0.8 miles / 1.2 kilometers Calm Calm - N/A Snow Light Snow
4:45 PM 28.4°F -2.0°C 28.4°F -2.0°C 100% 29.77 in / 1008.0 hPa 1.8 miles / 2.8 kilometers North 6.9 mph / 11.1 km/h - N/A Snow Light Snow
5:45 PM 28.4°F -2.0°C 28.4°F -2.0°C 100% 29.74 in / 1007.0 hPa 1.8 miles / 2.8 kilometers Calm Calm - N/A Snow Light Snow
6:15 PM 28.4°F -2.0°C 28.4°F -2.0°C 100% 29.74 in / 1007.0 hPa 1.8 miles / 2.8 kilometers North 6.9 mph / 11.1 km/h - N/A Snow Light Snow
6:45 PM 28.4°F -2.0°C 28.4°F -2.0°C 100% 29.74 in / 1007.0 hPa 2.0 miles / 3.2 kilometers NNW 8.1 mph / 13.0 km/h - N/A Snow Light Snow
7:45 PM 28.4°F -2.0°C 28.4°F -2.0°C 100% 29.72 in / 1006.3 hPa 2.0 miles / 3.2 kilometers NNW 4.6 mph / 7.4 km/h - N/A Snow Light Snow
8:45 PM 28.4°F -2.0°C 28.4°F -2.0°C 100% 29.74 in / 1007.0 hPa 2.0 miles / 3.2 kilometers Calm Calm - N/A Snow Light Snow
9:45 PM 28.4°F -2.0°C 28.4°F -2.0°C 100% 29.73 in / 1006.7 hPa 2.0 miles / 3.2 kilometers Calm Calm - N/A Snow Light Snow
10:45 PM 26.6°F -3.0°C 26.6°F -3.0°C 100% 29.73 in / 1006.7 hPa 2.0 miles / 3.2 kilometers Calm Calm - N/A Snow Light Snow
11:45 PM 26.6°F -3.0°C 26.6°F -3.0°C 100% 29.71 in / 1006.0 hPa 4.0 miles / 6.4 kilometers Calm Calm - N/A Snow Light Snow